Location: Recife
(8.0585°S, 34.8848°W)
Time: 10:13:29
(UTC-03:00)

Hubble Space Telescope - Pass Details

Date: 26 September 2021
Orbit: 535 x 538 km, 28.5° (Epoch: 18 October)

Event Time Altitude Azimuth Distance (km) Brightness Sun altitude
Exits shadow 04:16:45 - 217° (SW) 2,198 3.6 -13.2°
Reaches altitude 10° 04:18:01 10° 208° (SSW) 1,789 3.2 -12.9°
Maximum altitude 04:21:17 22° 156° (SSE) 1,200 2.9 -12.1°
Drops below altitude 10° 04:24:31 10° 104° (ESE) 1,783 4.9 -11.3°
Sets 04:27:09 0° 88° (E) 2,670 6.6 -10.6°
